Weather History for North Platte, NE

Change the Weather History Date:

Thursday, July 4, 2013

  Actual Average Record
Temperature  
Mean Temperature 76 °F 73 °F  
Max Temperature 93 °F 88 °F 106 °F (1936)
Min Temperature 59 °F 59 °F 39 °F (1997)
Degree Days  
Heating Degree Days 0 0  
Month to date heating degree days 4 0  
Since 1 June heating degree days 51 51  
Since 1 July heating degree days 4 0  
Cooling Degree Days 11 9  
Month to date cooling degree days 15 33  
Year to date cooling degree days 242 199  
Since 1 June cooling degree days 194 171  
Growing Degree Days 26 (Base 50)    
Moisture  
Dew Point 49 °F    
Average Humidity 48    
Maximum Humidity 75    
Minimum Humidity 21    
Precipitation  
Precipitation T in 0.10 in 1.71 in (1944)
Month to date precipitation T 0.37  
Year to date precipitation 8.11 11.23  
Snow  
Snow 0.00 in 0.00 in 0.00 in (2002)
Month to date snowfall 0.0 0.0  
Since 1 June snowfall T 0.0  
Since 1 July snowfall 0.0 0.0  
Snow Depth 0.00 in    
Sea Level Pressure  
Sea Level Pressure 29.82 in    
Wind  
Wind Speed 9 mph (SE)    
Max Wind Speed 21 mph    
Max Gust Speed 25 mph    
Visibility 10 miles    
Events      
T = Trace of Precipitation, MM = Missing Value Source: NWS Daily Summary

Daily Weather History Graph

Daily Weather History Graph

Search for Another Location

Airport:

Trip Planner

Search our weather history database for the weather conditions in past years. The results will help you decide how hot, cold, wet, or windy it might be!

Date:

Astronomy

Jul. 04, 2013 Rise Set
Actual Time 6:15 AM CDT 9:18 PM CDT
Civil Twilight 5:42 AM CDT 9:51 PM CDT
Nautical Twilight 4:59 AM CDT 10:34 PM CDT
Astronomical Twilight 4:09 AM CDT 11:24 PM CDT
Moon 3:34 AM CDT (7/4) 6:23 PM CDT (7/4)
Length of Visible Light 16h 09m
Length of Day
15h 02m
Waning Crescent, 11% of the Moon is Illuminated
Jul 4
Waning Crescent
Jul 8
New
Jul 15
First Quarter
Jul 22
Full
Jul 29
Last Quarter

Hourly Weather History & Observations

Time (CDT) Temp. Heat Index Dew Point Humidity Pressure Visibility Wind Dir Wind Speed Gust Speed Precip Events Conditions
12:53 AM 59.0 °F - 52.0 °F 78% 29.88 in 10.0 mi East 9.2 mph - N/A   Clear
1:53 AM 61.0 °F - 48.9 °F 64% 29.87 in 10.0 mi East 10.4 mph - N/A   Clear
2:53 AM 62.1 °F - 46.9 °F 58% 29.86 in 10.0 mi ESE 8.1 mph - N/A   Clear
3:53 AM 64.9 °F - 46.0 °F 50% 29.85 in 10.0 mi SE 8.1 mph - N/A   Clear
4:53 AM 64.0 °F - 46.9 °F 54% 29.85 in 10.0 mi SSE 8.1 mph - N/A   Clear
5:53 AM 64.0 °F - 46.9 °F 54% 29.85 in 10.0 mi SSE 9.2 mph - N/A   Clear
6:53 AM 60.1 °F - 48.0 °F 64% 29.86 in 10.0 mi East 5.8 mph - N/A   Clear
7:53 AM 64.9 °F - 50.0 °F 58% 29.87 in 10.0 mi ESE 4.6 mph - N/A   Clear
8:53 AM 70.0 °F - 50.0 °F 49% 29.86 in 10.0 mi South 9.2 mph - N/A   Clear
9:53 AM 73.0 °F - 51.1 °F 46% 29.87 in 10.0 mi SSE 6.9 mph - N/A   Clear
10:53 AM 78.1 °F - 53.1 °F 42% 29.86 in 10.0 mi South 11.5 mph - N/A   Clear
11:53 AM 82.9 °F 81.8 °F 53.1 °F 36% 29.83 in 10.0 mi South 9.2 mph 17.3 mph N/A   Clear
12:53 PM 87.1 °F - 50.0 °F 28% 29.82 in 10.0 mi South 16.1 mph 23.0 mph N/A   Clear
1:53 PM 89.1 °F - 46.9 °F 23% 29.80 in 10.0 mi South 17.3 mph 24.2 mph N/A   Clear
2:53 PM 91.0 °F - 48.0 °F 23% 29.78 in 10.0 mi South 13.8 mph 25.3 mph N/A   Clear
3:53 PM 91.9 °F - 46.9 °F 21% 29.77 in 10.0 mi South 13.8 mph 20.7 mph N/A   Clear
4:53 PM 91.9 °F - 46.9 °F 21% 29.75 in 10.0 mi South 12.7 mph - N/A   Clear
5:53 PM 91.0 °F - 48.0 °F 23% 29.75 in 10.0 mi South 9.2 mph - N/A   Clear
6:53 PM 86.0 °F - 48.9 °F 28% 29.76 in 10.0 mi SSE 4.6 mph - N/A   Clear
7:53 PM 82.9 °F - 46.9 °F 28% 29.77 in 10.0 mi West 10.4 mph - N/A   Mostly Cloudy
8:53 PM 78.1 °F - 51.1 °F 39% 29.75 in 10.0 mi ESE 6.9 mph - 0.00 in   Clear
9:53 PM 75.9 °F - 52.0 °F 43% 29.77 in 10.0 mi ENE 3.5 mph - N/A   Clear
10:53 PM 66.9 °F - 52.0 °F 59% 29.78 in 10.0 mi East 4.6 mph - N/A   Clear
11:53 PM 68.0 °F - 51.1 °F 55% 29.78 in 10.0 mi ESE 8.1 mph - N/A   Clear